Regional Weather Roundup
Issued by NWS Tampa Bay Area, FL

Home | Current Version | Previous Version | Text Only | Print | Product List | Glossary On
Versions: 1 2 3 4 5 6 7 8 9 10 11 12 13 14 15 16 17 18 19 20 21 22 23 24 25 26 27 28 29 30 31 32 33 34 35 36 37 38 39 40 41 42 43 44 45 46 47 48 49 50
786
NZUS99 KTBW 180718
RWRTBW
Regional Weather Roundup National Weather Service Ruskin Florida
200 AM EST MON NOV 18 2019


CITY           SKY/WX    TMP DP  RH WIND       PRES   REMARKS
Cross City       N/A     49  49  99 CALM      29.88S
Williston      FAIR      48  47  98 CALM      29.88F
Gainesville    FAIR      49  46  90 CALM      29.90F
Ocala          CLOUDY    49  49 100 S5        29.90F
Crystal River  MOCLDY    48  46  93 CALM      29.89F
Inverness      CLOUDY    50  50 100 CALM      29.90F FOG
Leesburg       CLOUDY    53  49  86 W7        29.90F
Orlando        CLOUDY    55  49  80 NW7       29.88F
Brooksville    CLOUDY    52  49  89 S5        29.90F
Zephyrhills    CLOUDY    52  49  90 CALM      29.91F
Lakeland       CLOUDY    52  48  87 NW5       29.90F
Winter Haven   CLOUDY    54  50  86 NW7       29.89F
Bartow         CLOUDY    54  52  94 W7        29.88F

CITY           SKY/WX    TMP DP  RH WIND       PRES   REMARKS
Tampa Intl     CLOUDY    54  49  83 CALM      29.91F
Tampa Exec     CLOUDY    52  52 100 CALM      29.91F
MacDill AFB    CLOUDY    54  50  86 CALM      29.89F
Peter O Knight CLOUDY    54  52  94 CALM      29.91F
Plant City     CLOUDY    54  52  94 CALM      29.92F
Clearwater     CLOUDY    55  51  86 SE3       29.90F
St Petersburg  CLOUDY    57  51  80 E5        29.89F
Sarasota       CLOUDY    56  51  84 E3        29.88F
Sebring        CLOUDY    53  52  95 NW8       29.89F
Punta Gorda    CLOUDY    53  52  96 N9        29.91F
Ft Myers       CLOUDY    56  52  86 N7        29.89F
Ft Myers-RSW   CLOUDY    54  52  93 NE7       29.89F
Naples         CLOUDY    57  53  86 NE3       29.89S

STATION/POSITION SKY/WX   TEMP WIND        PRES    VSBY
                          AIR  DIR/SP/G
                          (F)  (DEG/KT/KT) (MB)    (MI)
Keaton Beach               55   20/  1/  2 1012.1S
Sand Key                   69   60/ 11/ 15 1009.9F
039 Panama City                260/ 10/ 12 1012.5F
036 Bayport                69  330/ 10/ 12 1012.7S
003 Captiva                    320/ 12/ 17 1013.0F
Venice                     55  360/  8/ 10 1012.5F
Cedar Key                  56  180/  7/  7 1012.0F

CITY           SKY/WX    TMP DP  RH WIND       PRES   REMARKS
Tallahassee    MOCLDY    53  50  89 CALM      29.88F
Daytona Beach  CLOUDY    53  51  93 W8        29.85F
Melbourne      CLOUDY    53  53 100 W8        29.87F
W Palm Beach   CLOUDY    58  55  90 W7        29.86F FOG
Miami          CLOUDY    60  53  77 W8        29.88S
Key West       CLOUDY    69  62  78 NE7       29.87F
San Juan, PR   PTCLDY    81  75  83 CALM      29.80F
Cancun, MX     PTCLDY    64  64 100 NW3       29.93S





USA.gov is the U.S. government's official web portal to all federal, state and local government web resources and services.